Year,Month,Day,Hour,Minute,Value (Times are PST for windspeed in km/hr)
2014,02,14,00,00,5.90
2014,02,14,00,01,7.20
2014,02,14,00,02,7.10
2014,02,14,00,03,5.70
2014,02,14,00,04,5.70
2014,02,14,00,05,6.20
2014,02,14,00,06,6.30
2014,02,14,00,07,3.60
2014,02,14,00,08,6.00
2014,02,14,00,09,9.10
2014,02,14,00,10,5.70
2014,02,14,00,11,5.00
2014,02,14,00,12,2.80
2014,02,14,00,13,3.20
2014,02,14,00,14,5.20
2014,02,14,00,15,7.00
2014,02,14,00,16,5.30
2014,02,14,00,17,5.00
2014,02,14,00,18,6.70
2014,02,14,00,19,7.30
2014,02,14,00,20,3.80
2014,02,14,00,21,2.70
2014,02,14,00,22,2.50
2014,02,14,00,23,2.30
2014,02,14,00,24,2.90
2014,02,14,00,25,2.50
2014,02,14,00,26,4.30
2014,02,14,00,27,5.10
2014,02,14,00,28,7.30
2014,02,14,00,29,8.10
2014,02,14,00,30,5.00
2014,02,14,00,31,4.00
2014,02,14,00,32,7.90
2014,02,14,00,33,4.50
2014,02,14,00,34,4.50
2014,02,14,00,35,3.20
2014,02,14,00,36,3.30
2014,02,14,00,37,4.40
2014,02,14,00,38,3.70
2014,02,14,00,39,7.00
2014,02,14,00,40,4.40
2014,02,14,00,41,10.80
2014,02,14,00,42,7.90
2014,02,14,00,43,8.80
2014,02,14,00,44,6.10
2014,02,14,00,45,4.80
2014,02,14,00,46,10.50
2014,02,14,00,47,11.40
2014,02,14,00,48,9.40
2014,02,14,00,49,7.00
2014,02,14,00,50,10.90
2014,02,14,00,51,7.90
2014,02,14,00,52,8.80
2014,02,14,00,53,8.40
2014,02,14,00,54,6.80
2014,02,14,00,55,10.40
2014,02,14,00,56,10.30
2014,02,14,00,57,12.10
2014,02,14,00,58,16.60
2014,02,14,00,59,8.50
2014,02,14,01,00,6.70
2014,02,14,01,01,5.30
2014,02,14,01,02,7.10
2014,02,14,01,03,8.60
2014,02,14,01,04,9.10
2014,02,14,01,05,7.80
2014,02,14,01,06,7.40
2014,02,14,01,07,12.20
2014,02,14,01,08,7.80
2014,02,14,01,09,11.70
2014,02,14,01,10,9.50
2014,02,14,01,11,8.70
2014,02,14,01,12,8.50
2014,02,14,01,13,5.30
2014,02,14,01,14,6.00
2014,02,14,01,15,5.80
2014,02,14,01,16,8.00
2014,02,14,01,17,10.10
2014,02,14,01,18,7.80
2014,02,14,01,19,10.10
2014,02,14,01,20,10.60
2014,02,14,01,21,4.80
2014,02,14,01,22,5.80
2014,02,14,01,23,6.10
2014,02,14,01,24,9.80
2014,02,14,01,25,5.90
2014,02,14,01,26,7.30
2014,02,14,01,27,6.70
2014,02,14,01,28,5.30
2014,02,14,01,29,5.00
2014,02,14,01,30,4.40
2014,02,14,01,31,6.70
2014,02,14,01,32,7.40
2014,02,14,01,33,13.50
2014,02,14,01,34,10.00
2014,02,14,01,35,7.60
2014,02,14,01,36,6.40
2014,02,14,01,37,9.30
2014,02,14,01,38,8.60
2014,02,14,01,39,7.10
2014,02,14,01,40,11.50
2014,02,14,01,41,13.00
2014,02,14,01,42,8.20
2014,02,14,01,43,4.50
2014,02,14,01,44,16.10
2014,02,14,01,45,13.10
2014,02,14,01,46,8.30
2014,02,14,01,47,16.30
2014,02,14,01,48,16.20
2014,02,14,01,49,17.90
2014,02,14,01,50,13.30
2014,02,14,01,51,8.10
2014,02,14,01,52,8.10
2014,02,14,01,53,8.10
2014,02,14,01,54,8.80
2014,02,14,01,55,12.20
2014,02,14,01,56,9.80
2014,02,14,01,57,10.80
2014,02,14,01,58,15.70
2014,02,14,01,59,11.20
2014,02,14,02,00,9.00
2014,02,14,02,01,8.40
2014,02,14,02,02,14.50
2014,02,14,02,03,8.30
2014,02,14,02,04,9.00
2014,02,14,02,05,7.90
2014,02,14,02,06,8.50
2014,02,14,02,07,8.00
2014,02,14,02,08,16.50
2014,02,14,02,09,17.00
2014,02,14,02,10,17.20
2014,02,14,02,11,15.70
2014,02,14,02,12,16.00
2014,02,14,02,13,12.30
2014,02,14,02,14,10.50
2014,02,14,02,15,12.60
2014,02,14,02,16,6.70
2014,02,14,02,17,13.50
2014,02,14,02,18,12.20
2014,02,14,02,19,11.00
2014,02,14,02,20,12.60
2014,02,14,02,21,9.90
2014,02,14,02,22,8.40
2014,02,14,02,23,12.60
2014,02,14,02,24,14.30
2014,02,14,02,25,14.70
2014,02,14,02,26,9.20
2014,02,14,02,27,13.60
2014,02,14,02,28,11.80
2014,02,14,02,29,18.90
2014,02,14,02,30,9.10
2014,02,14,02,31,11.00
2014,02,14,02,32,7.90
2014,02,14,02,33,10.00
2014,02,14,02,34,14.50
2014,02,14,02,35,14.60
2014,02,14,02,36,11.70
2014,02,14,02,37,16.30
2014,02,14,02,38,12.80
2014,02,14,02,39,10.60
2014,02,14,02,40,15.30
2014,02,14,02,41,13.00
2014,02,14,02,42,11.20
2014,02,14,02,43,12.90
2014,02,14,02,44,10.00
2014,02,14,02,45,11.90
2014,02,14,02,46,9.80
2014,02,14,02,47,7.90
2014,02,14,02,48,5.90
2014,02,14,02,49,7.40
2014,02,14,02,50,6.80
2014,02,14,02,51,8.70
2014,02,14,02,52,5.60
2014,02,14,02,53,8.30
2014,02,14,02,54,7.60
2014,02,14,02,55,6.80
2014,02,14,02,56,8.30
2014,02,14,02,57,7.80
2014,02,14,02,58,7.70
2014,02,14,02,59,11.00
2014,02,14,03,00,16.00
2014,02,14,03,01,9.70
2014,02,14,03,02,10.40
2014,02,14,03,03,11.50
2014,02,14,03,04,10.40
2014,02,14,03,05,12.70
2014,02,14,03,06,16.40
2014,02,14,03,07,16.70
2014,02,14,03,08,14.00
2014,02,14,03,09,12.10
2014,02,14,03,10,20.60
2014,02,14,03,11,14.00
2014,02,14,03,12,17.00
2014,02,14,03,13,11.20
2014,02,14,03,14,14.10
2014,02,14,03,15,11.50
2014,02,14,03,16,8.10
2014,02,14,03,17,9.70
2014,02,14,03,18,10.80
2014,02,14,03,19,11.60
2014,02,14,03,20,10.60
2014,02,14,03,21,14.30
2014,02,14,03,22,15.40
2014,02,14,03,23,16.70
2014,02,14,03,24,13.30
2014,02,14,03,25,14.20
2014,02,14,03,26,9.20
2014,02,14,03,27,9.50
2014,02,14,03,28,8.70
2014,02,14,03,29,10.50
2014,02,14,03,30,7.70
2014,02,14,03,31,10.00
2014,02,14,03,32,15.50
2014,02,14,03,33,7.80
2014,02,14,03,34,8.10
2014,02,14,03,35,5.60
2014,02,14,03,36,10.10
2014,02,14,03,37,5.10
2014,02,14,03,38,6.20
2014,02,14,03,39,11.00
2014,02,14,03,40,10.70
2014,02,14,03,41,13.40
2014,02,14,03,42,18.80
2014,02,14,03,43,13.30
2014,02,14,03,44,12.80
2014,02,14,03,45,12.00
2014,02,14,03,46,10.00
2014,02,14,03,47,12.50
2014,02,14,03,48,19.30
2014,02,14,03,49,19.30
2014,02,14,03,50,19.30
2014,02,14,03,51,19.30
2014,02,14,03,52,18.40
2014,02,14,03,53,12.50
2014,02,14,03,54,6.70
2014,02,14,03,55,6.70
2014,02,14,03,56,6.40
2014,02,14,03,57,9.60
2014,02,14,03,58,6.20
2014,02,14,03,59,7.60
2014,02,14,04,00,5.70
2014,02,14,04,01,5.20
2014,02,14,04,02,7.20
2014,02,14,04,03,6.70
2014,02,14,04,04,6.20
2014,02,14,04,05,8.40
2014,02,14,04,06,7.50
2014,02,14,04,07,5.20
2014,02,14,04,08,6.20
2014,02,14,04,09,2.40
2014,02,14,04,10,6.60
2014,02,14,04,11,8.90
2014,02,14,04,12,4.60
2014,02,14,04,13,4.00
2014,02,14,04,14,5.40
2014,02,14,04,15,7.50
2014,02,14,04,16,6.80
2014,02,14,04,17,5.70
2014,02,14,04,18,9.10
2014,02,14,04,19,8.30
2014,02,14,04,20,8.50
2014,02,14,04,21,10.70
2014,02,14,04,22,5.80
2014,02,14,04,23,4.80
2014,02,14,04,24,4.20
2014,02,14,04,25,7.50
2014,02,14,04,26,6.60
2014,02,14,04,27,3.20
2014,02,14,04,28,5.90
2014,02,14,04,29,6.10
2014,02,14,04,30,11.40
2014,02,14,04,31,15.00
2014,02,14,04,32,7.50
2014,02,14,04,33,6.40
2014,02,14,04,34,3.90
2014,02,14,04,35,3.20
2014,02,14,04,36,3.80
2014,02,14,04,37,3.00
2014,02,14,04,38,5.20
2014,02,14,04,39,4.10
2014,02,14,04,40,7.80
2014,02,14,04,41,5.60
2014,02,14,04,42,6.60
2014,02,14,04,43,5.00
2014,02,14,04,44,4.70
2014,02,14,04,45,6.70
2014,02,14,04,46,5.60
2014,02,14,04,47,2.70
2014,02,14,04,48,4.70
2014,02,14,04,49,7.10
2014,02,14,04,50,8.20
2014,02,14,04,51,4.50
2014,02,14,04,52,6.00
2014,02,14,04,53,2.20
2014,02,14,04,54,7.20
2014,02,14,04,55,7.60
2014,02,14,04,56,6.90
2014,02,14,04,57,4.60
2014,02,14,04,58,3.00
2014,02,14,04,59,2.20
2014,02,14,05,00,5.10
2014,02,14,05,01,4.00
2014,02,14,05,02,4.80
2014,02,14,05,03,4.30
2014,02,14,05,04,1.60
2014,02,14,05,05,1.60
2014,02,14,05,06,3.70
2014,02,14,05,07,4.20
2014,02,14,05,08,1.90
2014,02,14,05,09,3.60
2014,02,14,05,10,7.90
2014,02,14,05,11,3.20
2014,02,14,05,12,4.30
2014,02,14,05,13,8.30
2014,02,14,05,14,13.10
2014,02,14,05,15,5.60
2014,02,14,05,16,5.10
2014,02,14,05,17,7.30
2014,02,14,05,18,7.50
2014,02,14,05,19,5.80
2014,02,14,05,20,6.70
2014,02,14,05,21,6.40
2014,02,14,05,22,7.10
2014,02,14,05,23,6.50
2014,02,14,05,24,4.00
2014,02,14,05,25,4.50
2014,02,14,05,26,5.60
2014,02,14,05,27,5.10
2014,02,14,05,28,3.00
2014,02,14,05,29,1.90
2014,02,14,05,30,5.10
2014,02,14,05,31,3.30
2014,02,14,05,32,4.90
2014,02,14,05,33,1.90
2014,02,14,05,34,3.60
2014,02,14,05,35,2.60
2014,02,14,05,36,1.70
2014,02,14,05,37,4.90
2014,02,14,05,38,2.40
2014,02,14,05,39,2.50
2014,02,14,05,40,2.50
2014,02,14,05,41,3.50
2014,02,14,05,42,3.80
2014,02,14,05,43,2.80
2014,02,14,05,44,1.40
2014,02,14,05,45,2.40
2014,02,14,05,46,3.30
2014,02,14,05,47,2.90
2014,02,14,05,48,2.50
2014,02,14,05,49,3.60
2014,02,14,05,50,2.40
2014,02,14,05,51,1.80
2014,02,14,05,52,1.90
2014,02,14,05,53,2.60
2014,02,14,05,54,3.50
2014,02,14,05,55,3.90
2014,02,14,05,56,4.00
2014,02,14,05,57,5.60
2014,02,14,05,58,5.80
2014,02,14,05,59,4.10
2014,02,14,06,00,2.80
2014,02,14,06,01,3.40
2014,02,14,06,02,3.50
2014,02,14,06,03,4.00
2014,02,14,06,04,2.50
2014,02,14,06,05,1.70
2014,02,14,06,06,1.40
2014,02,14,06,07,0.10
2014,02,14,06,08,0.20
2014,02,14,06,09,0.00
2014,02,14,06,10,0.70
2014,02,14,06,11,1.40
2014,02,14,06,12,2.50
2014,02,14,06,13,2.70
2014,02,14,06,14,0.60
2014,02,14,06,15,2.50
2014,02,14,06,16,4.30
2014,02,14,06,17,1.80
2014,02,14,06,18,0.20
2014,02,14,06,19,1.60
2014,02,14,06,20,3.30
2014,02,14,06,21,2.70
2014,02,14,06,22,4.90
2014,02,14,06,23,3.40
2014,02,14,06,24,5.20
2014,02,14,06,25,4.10
2014,02,14,06,26,3.80
2014,02,14,06,27,3.90
2014,02,14,06,28,3.70
2014,02,14,06,29,3.10
2014,02,14,06,30,3.30
2014,02,14,06,31,5.00
2014,02,14,06,32,4.70
2014,02,14,06,33,3.40
2014,02,14,06,34,3.70
2014,02,14,06,35,2.20
2014,02,14,06,36,3.90
2014,02,14,06,37,3.40
2014,02,14,06,38,4.40
2014,02,14,06,39,4.90
2014,02,14,06,40,4.00
2014,02,14,06,41,3.30
2014,02,14,06,42,6.60
2014,02,14,06,43,3.50
2014,02,14,06,44,1.80
2014,02,14,06,45,3.90
2014,02,14,06,46,3.50
2014,02,14,06,47,3.70
2014,02,14,06,48,2.30
2014,02,14,06,49,1.60
2014,02,14,06,50,2.20
2014,02,14,06,51,2.30
2014,02,14,06,52,1.40
2014,02,14,06,53,1.30
2014,02,14,06,54,0.60
2014,02,14,06,55,3.00
2014,02,14,06,56,4.70
2014,02,14,06,57,5.60
2014,02,14,06,58,4.80
2014,02,14,06,59,4.30
2014,02,14,07,00,4.40
2014,02,14,07,01,5.30
2014,02,14,07,02,5.60
2014,02,14,07,03,6.40
2014,02,14,07,04,5.20
2014,02,14,07,05,4.90
2014,02,14,07,06,3.60
2014,02,14,07,07,3.50
2014,02,14,07,08,4.00
2014,02,14,07,09,4.90
2014,02,14,07,10,4.10
2014,02,14,07,11,3.00
2014,02,14,07,12,1.60
2014,02,14,07,13,1.40
2014,02,14,07,14,1.50
2014,02,14,07,15,0.50
2014,02,14,07,16,0.30
2014,02,14,07,17,0.10
2014,02,14,07,18,1.10
2014,02,14,07,19,1.20
2014,02,14,07,20,1.50
2014,02,14,07,21,2.40
2014,02,14,07,22,1.80
2014,02,14,07,23,1.70
2014,02,14,07,24,0.20
2014,02,14,07,25,0.00
2014,02,14,07,26,0.00
2014,02,14,07,27,0.10
2014,02,14,07,28,2.70
2014,02,14,07,29,3.10
2014,02,14,07,30,4.00
2014,02,14,07,31,1.80
2014,02,14,07,32,1.50
2014,02,14,07,33,0.60
2014,02,14,07,34,2.00
2014,02,14,07,35,2.40
2014,02,14,07,36,3.50
2014,02,14,07,37,2.60
2014,02,14,07,38,1.80
2014,02,14,07,39,1.10
2014,02,14,07,40,0.50
2014,02,14,07,41,0.80
2014,02,14,07,42,1.30
2014,02,14,07,43,2.40
2014,02,14,07,44,2.10
2014,02,14,07,45,1.80
2014,02,14,07,46,4.10
2014,02,14,07,47,6.00
2014,02,14,07,48,9.50
2014,02,14,07,49,10.10
2014,02,14,07,50,5.50
2014,02,14,07,51,2.20
2014,02,14,07,52,1.20
2014,02,14,07,53,2.50
2014,02,14,07,54,3.50
2014,02,14,07,55,2.60
2014,02,14,07,56,3.90
2014,02,14,07,57,2.50
2014,02,14,07,58,4.80
2014,02,14,07,59,4.50
2014,02,14,08,00,3.70
2014,02,14,08,01,3.80
2014,02,14,08,02,4.40
2014,02,14,08,03,4.10
2014,02,14,08,04,3.90
2014,02,14,08,05,5.10
2014,02,14,08,06,4.30
2014,02,14,08,07,3.40
2014,02,14,08,08,4.50
2014,02,14,08,09,3.40
2014,02,14,08,10,5.00
2014,02,14,08,11,5.30
2014,02,14,08,12,4.10
2014,02,14,08,13,2.80
2014,02,14,08,14,2.90
2014,02,14,08,15,3.10
2014,02,14,08,16,4.00
2014,02,14,08,17,4.90
2014,02,14,08,18,6.20
2014,02,14,08,19,4.40
2014,02,14,08,20,3.00
2014,02,14,08,21,4.00
2014,02,14,08,22,2.90
2014,02,14,08,23,2.10
2014,02,14,08,24,3.70
2014,02,14,08,25,4.30
2014,02,14,08,26,3.80
2014,02,14,08,27,2.40
2014,02,14,08,28,2.20
2014,02,14,08,29,1.60
2014,02,14,08,30,1.70
2014,02,14,08,31,2.10
2014,02,14,08,32,4.80
2014,02,14,08,33,4.10
2014,02,14,08,34,2.80
2014,02,14,08,35,1.30
2014,02,14,08,36,2.40
2014,02,14,08,37,5.60
2014,02,14,08,38,5.60
2014,02,14,08,39,3.90
2014,02,14,08,40,3.00
2014,02,14,08,41,2.10
2014,02,14,08,42,2.50
2014,02,14,08,43,2.90
2014,02,14,08,44,2.80
2014,02,14,08,45,4.10
2014,02,14,08,46,2.70
2014,02,14,08,47,1.50
2014,02,14,08,48,3.50
2014,02,14,08,49,2.20
2014,02,14,08,50,2.00
2014,02,14,08,51,1.90
2014,02,14,08,52,0.40
2014,02,14,08,53,3.60
2014,02,14,08,54,3.80
2014,02,14,08,55,2.30
2014,02,14,08,56,1.20
2014,02,14,08,57,2.70
2014,02,14,08,58,3.70
2014,02,14,08,59,2.00
2014,02,14,09,00,0.60
2014,02,14,09,01,2.40
2014,02,14,09,02,0.30
2014,02,14,09,03,1.80
2014,02,14,09,04,2.30
2014,02,14,09,05,2.50
2014,02,14,09,06,0.50
2014,02,14,09,07,2.20
2014,02,14,09,08,3.80
2014,02,14,09,09,2.90
2014,02,14,09,10,4.80
2014,02,14,09,11,5.70
2014,02,14,09,12,4.30
2014,02,14,09,13,3.30
2014,02,14,09,14,5.80
2014,02,14,09,15,5.90
2014,02,14,09,16,4.80
2014,02,14,09,17,4.80
2014,02,14,09,18,4.90
2014,02,14,09,19,4.00
2014,02,14,09,20,4.50
2014,02,14,09,21,3.70
2014,02,14,09,22,3.10
2014,02,14,09,23,2.50
2014,02,14,09,24,0.60
2014,02,14,09,25,2.90
2014,02,14,09,26,3.50
2014,02,14,09,27,8.10
2014,02,14,09,28,6.70
2014,02,14,09,29,3.80
2014,02,14,09,30,3.90
2014,02,14,09,31,3.00
2014,02,14,09,32,1.70
2014,02,14,09,33,2.60
2014,02,14,09,34,2.50
2014,02,14,09,35,3.00
2014,02,14,09,36,4.30
2014,02,14,09,37,2.40
2014,02,14,09,38,7.00
2014,02,14,09,39,4.80
2014,02,14,09,40,4.40
2014,02,14,09,41,2.50
2014,02,14,09,42,1.80
2014,02,14,09,43,1.30
2014,02,14,09,44,14.50
2014,02,14,09,45,7.70
2014,02,14,09,46,8.70
2014,02,14,09,47,7.40
2014,02,14,09,48,6.70
2014,02,14,09,49,6.20
2014,02,14,09,50,5.60
2014,02,14,09,51,4.70
2014,02,14,09,52,5.70
2014,02,14,09,53,3.80
2014,02,14,09,54,3.40
2014,02,14,09,55,5.10
2014,02,14,09,56,4.10
2014,02,14,09,57,5.40
2014,02,14,09,58,3.70
2014,02,14,09,59,4.30
2014,02,14,10,00,3.20
2014,02,14,10,01,4.30
2014,02,14,10,02,4.60
2014,02,14,10,03,2.70
2014,02,14,10,04,3.20
2014,02,14,10,05,3.80
2014,02,14,10,06,3.50
2014,02,14,10,07,3.60
2014,02,14,10,08,5.20
2014,02,14,10,09,5.00
2014,02,14,10,10,3.50
2014,02,14,10,11,3.10
2014,02,14,10,12,2.10
2014,02,14,10,13,1.80
2014,02,14,10,14,2.80
2014,02,14,10,15,2.90
2014,02,14,10,16,2.80
2014,02,14,10,17,2.20
2014,02,14,10,18,1.10
2014,02,14,10,19,4.30
2014,02,14,10,20,3.40
2014,02,14,10,21,2.90
2014,02,14,10,22,2.80
2014,02,14,10,23,2.40
2014,02,14,10,24,3.50
2014,02,14,10,25,5.30
2014,02,14,10,26,3.60
2014,02,14,10,27,1.30
2014,02,14,10,28,4.60
2014,02,14,10,29,5.40
2014,02,14,10,30,3.90
2014,02,14,10,31,1.70
2014,02,14,10,32,4.00
2014,02,14,10,33,2.90
2014,02,14,10,34,3.80
2014,02,14,10,35,2.10
2014,02,14,10,36,3.70
2014,02,14,10,37,6.10
2014,02,14,10,38,6.40
2014,02,14,10,39,5.70
2014,02,14,10,40,2.60
2014,02,14,10,41,4.00
2014,02,14,10,42,5.40
2014,02,14,10,43,5.10
2014,02,14,10,44,6.20
2014,02,14,10,45,6.60
2014,02,14,10,46,4.10
2014,02,14,10,47,3.90
2014,02,14,10,48,4.50
2014,02,14,10,49,5.00
2014,02,14,10,50,4.80
2014,02,14,10,51,3.40
2014,02,14,10,52,1.70
2014,02,14,10,53,4.00
2014,02,14,10,54,4.70
2014,02,14,10,55,3.50
2014,02,14,10,56,1.90
2014,02,14,10,57,3.40
2014,02,14,10,58,4.70
2014,02,14,10,59,3.70
2014,02,14,11,00,5.00
2014,02,14,11,01,3.80
2014,02,14,11,02,4.20
2014,02,14,11,03,3.40
2014,02,14,11,04,2.60
2014,02,14,11,05,3.40
2014,02,14,11,06,2.90
2014,02,14,11,07,1.60
2014,02,14,11,08,0.30
2014,02,14,11,09,0.90
2014,02,14,11,10,0.70
2014,02,14,11,11,1.00
2014,02,14,11,12,0.60
2014,02,14,11,13,1.20
2014,02,14,11,14,1.70
2014,02,14,11,15,0.70
2014,02,14,11,16,2.80
2014,02,14,11,17,2.40
2014,02,14,11,18,1.40
2014,02,14,11,19,1.60
2014,02,14,11,20,2.80
2014,02,14,11,21,5.00
2014,02,14,11,22,4.30
2014,02,14,11,23,2.90
2014,02,14,11,24,2.60
2014,02,14,11,25,2.70
2014,02,14,11,26,2.00
2014,02,14,11,27,1.60
2014,02,14,11,28,3.90
2014,02,14,11,29,4.50
2014,02,14,11,30,4.80
2014,02,14,11,31,5.40
2014,02,14,11,32,6.40
2014,02,14,11,33,4.80
2014,02,14,11,34,2.40
2014,02,14,11,35,2.90
2014,02,14,11,36,4.20
2014,02,14,11,37,2.80
2014,02,14,11,38,0.90
2014,02,14,11,39,3.20
2014,02,14,11,40,3.40
2014,02,14,11,41,4.70
2014,02,14,11,42,7.20
2014,02,14,11,43,6.60
2014,02,14,11,44,3.40
2014,02,14,11,45,2.60
2014,02,14,11,46,2.80
2014,02,14,11,47,0.90
2014,02,14,11,48,0.80
2014,02,14,11,49,0.60
2014,02,14,11,50,1.90
2014,02,14,11,51,3.60
2014,02,14,11,52,2.40
2014,02,14,11,53,2.80
2014,02,14,11,54,1.80
2014,02,14,11,55,0.60
2014,02,14,11,56,1.00
2014,02,14,11,57,2.30
2014,02,14,11,58,2.80
2014,02,14,11,59,3.40
2014,02,14,12,00,4.20
2014,02,14,12,01,2.40
2014,02,14,12,02,3.70
2014,02,14,12,03,5.60
2014,02,14,12,04,6.40
2014,02,14,12,05,5.80
2014,02,14,12,06,4.10
2014,02,14,12,07,5.70
2014,02,14,12,08,6.70
2014,02,14,12,09,6.30
2014,02,14,12,10,4.40
2014,02,14,12,11,6.00
2014,02,14,12,12,8.80
2014,02,14,12,13,5.60
2014,02,14,12,14,3.50
2014,02,14,12,15,5.90
2014,02,14,12,16,8.70
2014,02,14,12,17,3.50
2014,02,14,12,18,5.10
2014,02,14,12,19,7.40
2014,02,14,12,20,5.30
2014,02,14,12,21,5.40
2014,02,14,12,22,6.70
2014,02,14,12,23,9.20
2014,02,14,12,24,5.20
2014,02,14,12,25,5.60
2014,02,14,12,26,5.90
2014,02,14,12,27,8.30
2014,02,14,12,28,6.00
2014,02,14,12,29,4.90
2014,02,14,12,30,3.00
2014,02,14,12,31,4.00
2014,02,14,12,32,5.50
2014,02,14,12,33,3.80
2014,02,14,12,34,5.90
2014,02,14,12,35,7.40
2014,02,14,12,36,4.90
2014,02,14,12,37,3.70
2014,02,14,12,38,6.50
2014,02,14,12,39,7.50
2014,02,14,12,40,6.20
2014,02,14,12,41,5.10
2014,02,14,12,42,7.90
2014,02,14,12,43,5.30
2014,02,14,12,44,13.10
2014,02,14,12,45,7.30
2014,02,14,12,46,4.50
2014,02,14,12,47,4.90
2014,02,14,12,48,5.80
2014,02,14,12,49,3.20
2014,02,14,12,50,5.70
2014,02,14,12,51,6.80
2014,02,14,12,52,4.50
2014,02,14,12,53,7.20
2014,02,14,12,54,8.80
2014,02,14,12,55,6.30
2014,02,14,12,56,7.40
2014,02,14,12,57,7.40
2014,02,14,12,58,2.50
2014,02,14,12,59,2.40
2014,02,14,13,00,5.80
2014,02,14,13,01,6.80
2014,02,14,13,02,3.30
2014,02,14,13,03,2.00
2014,02,14,13,04,3.30
2014,02,14,13,05,4.90
2014,02,14,13,06,4.00
2014,02,14,13,07,0.70
2014,02,14,13,08,2.10
2014,02,14,13,09,4.80
2014,02,14,13,10,3.60
2014,02,14,13,11,4.00
2014,02,14,13,12,4.50
2014,02,14,13,13,4.40
2014,02,14,13,14,6.30
2014,02,14,13,15,5.10
2014,02,14,13,16,5.00
2014,02,14,13,17,5.60
2014,02,14,13,18,3.80
2014,02,14,13,19,2.40
2014,02,14,13,20,1.60
2014,02,14,13,21,4.60
2014,02,14,13,22,3.60
2014,02,14,13,23,3.80
2014,02,14,13,24,4.60
2014,02,14,13,25,2.30
2014,02,14,13,26,3.90
2014,02,14,13,27,2.40
2014,02,14,13,28,2.40
2014,02,14,13,29,3.60
2014,02,14,13,30,3.40
2014,02,14,13,31,1.80
2014,02,14,13,32,4.20
2014,02,14,13,33,4.90
2014,02,14,13,34,5.70
2014,02,14,13,35,5.10
2014,02,14,13,36,5.80
2014,02,14,13,37,7.90
2014,02,14,13,38,7.70
2014,02,14,13,39,9.50
2014,02,14,13,40,3.90
2014,02,14,13,41,5.30
2014,02,14,13,42,3.70
2014,02,14,13,43,4.80
2014,02,14,13,44,5.60
2014,02,14,13,45,3.80
2014,02,14,13,46,4.00
2014,02,14,13,47,4.50
2014,02,14,13,48,5.80
2014,02,14,13,49,10.20
2014,02,14,13,50,9.60
2014,02,14,13,51,8.60
2014,02,14,13,52,7.80
2014,02,14,13,53,1.80
2014,02,14,13,54,2.60
2014,02,14,13,55,3.00
2014,02,14,13,56,2.50
2014,02,14,13,57,6.40
2014,02,14,13,58,6.00
2014,02,14,13,59,6.20
2014,02,14,14,00,4.00
2014,02,14,14,01,3.20
2014,02,14,14,02,6.40
2014,02,14,14,03,2.30
2014,02,14,14,04,2.50
2014,02,14,14,05,4.00
2014,02,14,14,06,3.00
2014,02,14,14,07,3.80
2014,02,14,14,08,5.80
2014,02,14,14,09,8.90
2014,02,14,14,10,2.20
2014,02,14,14,11,4.20
2014,02,14,14,12,4.80
2014,02,14,14,13,4.00
2014,02,14,14,14,5.50
2014,02,14,14,15,3.70
2014,02,14,14,16,4.00
2014,02,14,14,17,2.00
2014,02,14,14,18,6.10
2014,02,14,14,19,6.60
2014,02,14,14,20,6.60
2014,02,14,14,21,5.20
2014,02,14,14,22,7.60
2014,02,14,14,23,8.90
2014,02,14,14,24,8.70
2014,02,14,14,25,6.40
2014,02,14,14,26,5.50
2014,02,14,14,27,5.40
2014,02,14,14,28,3.00
2014,02,14,14,29,1.80
2014,02,14,14,30,3.10
2014,02,14,14,31,1.90
2014,02,14,14,32,3.70
2014,02,14,14,33,4.70
2014,02,14,14,34,2.90
2014,02,14,14,35,2.50
2014,02,14,14,36,2.10
2014,02,14,14,37,2.60
2014,02,14,14,38,2.30
2014,02,14,14,39,1.70
2014,02,14,14,40,6.80
2014,02,14,14,41,6.40
2014,02,14,14,42,4.40
2014,02,14,14,43,6.70
2014,02,14,14,44,7.20
2014,02,14,14,45,5.50
2014,02,14,14,46,5.00
2014,02,14,14,47,4.70
2014,02,14,14,48,10.10
2014,02,14,14,49,11.50
2014,02,14,14,50,9.30
2014,02,14,14,51,7.30
2014,02,14,14,52,3.30
2014,02,14,14,53,3.60
2014,02,14,14,54,6.80
2014,02,14,14,55,4.70
2014,02,14,14,56,4.80
2014,02,14,14,57,16.00
2014,02,14,14,58,9.00
2014,02,14,14,59,6.10
2014,02,14,15,00,3.20
2014,02,14,15,01,4.80
2014,02,14,15,02,6.40
2014,02,14,15,03,6.00
2014,02,14,15,04,5.80
2014,02,14,15,05,5.70
2014,02,14,15,06,3.60
2014,02,14,15,07,2.50
2014,02,14,15,08,3.40
2014,02,14,15,09,4.70
2014,02,14,15,10,1.50
2014,02,14,15,11,3.20
2014,02,14,15,12,4.30
2014,02,14,15,13,4.60
2014,02,14,15,14,2.90
2014,02,14,15,15,2.20
2014,02,14,15,16,2.70
2014,02,14,15,17,2.30
2014,02,14,15,18,1.90
2014,02,14,15,19,4.40
2014,02,14,15,20,2.90
2014,02,14,15,21,1.50
2014,02,14,15,22,3.20
2014,02,14,15,23,2.60
2014,02,14,15,24,4.10
2014,02,14,15,25,2.70
2014,02,14,15,26,5.20
2014,02,14,15,27,8.60
2014,02,14,15,28,3.40
2014,02,14,15,29,3.10
2014,02,14,15,30,3.80
2014,02,14,15,31,6.40
2014,02,14,15,32,6.30
2014,02,14,15,33,9.40
2014,02,14,15,34,7.00
2014,02,14,15,35,6.00
2014,02,14,15,36,5.90
2014,02,14,15,37,10.80
2014,02,14,15,38,5.60
2014,02,14,15,39,10.80
2014,02,14,15,40,10.10
2014,02,14,15,41,10.40
2014,02,14,15,42,6.30
2014,02,14,15,43,10.80
2014,02,14,15,44,15.90
2014,02,14,15,45,12.60
2014,02,14,15,46,15.80
2014,02,14,15,47,15.80
2014,02,14,15,48,17.50
2014,02,14,15,49,12.80
2014,02,14,15,50,4.30
2014,02,14,15,51,12.20
2014,02,14,15,52,15.10
2014,02,14,15,53,10.90
2014,02,14,15,54,15.90
2014,02,14,15,55,15.60
2014,02,14,15,56,17.90
2014,02,14,15,57,14.50
2014,02,14,15,58,12.10
2014,02,14,15,59,13.60
2014,02,14,16,00,11.30
2014,02,14,16,01,8.10
2014,02,14,16,02,12.40
2014,02,14,16,03,11.50
2014,02,14,16,04,12.50
2014,02,14,16,05,9.70
2014,02,14,16,06,18.40
2014,02,14,16,07,17.20
2014,02,14,16,08,11.50
2014,02,14,16,09,5.40
2014,02,14,16,10,10.30
2014,02,14,16,11,14.70
2014,02,14,16,12,7.10
2014,02,14,16,13,11.70
2014,02,14,16,14,15.30
2014,02,14,16,15,11.30
2014,02,14,16,16,8.30
2014,02,14,16,17,8.20
2014,02,14,16,18,12.30
2014,02,14,16,19,11.70
2014,02,14,16,20,15.40
2014,02,14,16,21,10.10
2014,02,14,16,22,9.90
2014,02,14,16,23,12.90
2014,02,14,16,24,13.30
2014,02,14,16,25,13.30
2014,02,14,16,26,10.70
2014,02,14,16,27,14.70
2014,02,14,16,28,8.70
2014,02,14,16,29,5.90
2014,02,14,16,30,6.50
2014,02,14,16,31,8.30
2014,02,14,16,32,14.00
2014,02,14,16,33,13.10
2014,02,14,16,34,16.50
2014,02,14,16,35,11.10
2014,02,14,16,36,15.60
2014,02,14,16,37,8.20
2014,02,14,16,38,6.60
2014,02,14,16,39,7.80
2014,02,14,16,40,7.90
2014,02,14,16,41,13.30
2014,02,14,16,42,9.90
2014,02,14,16,43,12.00
2014,02,14,16,44,5.30
2014,02,14,16,45,11.90
2014,02,14,16,46,12.80
2014,02,14,16,47,11.60
2014,02,14,16,48,7.90
2014,02,14,16,49,10.90
2014,02,14,16,50,7.20
2014,02,14,16,51,7.40
2014,02,14,16,52,7.20
2014,02,14,16,53,7.00
2014,02,14,16,54,6.00
2014,02,14,16,55,6.50
2014,02,14,16,56,9.00
2014,02,14,16,57,13.30
2014,02,14,16,58,12.20
2014,02,14,16,59,5.70
2014,02,14,17,00,8.30
2014,02,14,17,01,8.00
2014,02,14,17,02,12.20
2014,02,14,17,03,8.60
2014,02,14,17,04,8.30
2014,02,14,17,05,6.40
2014,02,14,17,06,10.60
2014,02,14,17,07,6.90
2014,02,14,17,08,5.70
2014,02,14,17,09,11.00
2014,02,14,17,10,8.50
2014,02,14,17,11,8.90
2014,02,14,17,12,7.60
2014,02,14,17,13,8.40
2014,02,14,17,14,9.70
2014,02,14,17,15,12.20
2014,02,14,17,16,11.30
2014,02,14,17,17,9.30
2014,02,14,17,18,9.20
2014,02,14,17,19,8.20
2014,02,14,17,20,9.00
2014,02,14,17,21,10.00
2014,02,14,17,22,9.00
2014,02,14,17,23,10.10
2014,02,14,17,24,10.50
2014,02,14,17,25,8.90
2014,02,14,17,26,5.40
2014,02,14,17,27,9.90
2014,02,14,17,28,10.20
2014,02,14,17,29,10.00
2014,02,14,17,30,8.30
2014,02,14,17,31,12.90
2014,02,14,17,32,9.20
2014,02,14,17,33,8.30
2014,02,14,17,34,10.50
2014,02,14,17,35,11.90
2014,02,14,17,36,7.20
2014,02,14,17,37,9.50
2014,02,14,17,38,13.00
2014,02,14,17,39,15.90
2014,02,14,17,40,7.60
2014,02,14,17,41,10.50
2014,02,14,17,42,9.10
2014,02,14,17,43,11.70
2014,02,14,17,44,12.30
2014,02,14,17,45,12.50
2014,02,14,17,46,9.70
2014,02,14,17,47,10.20
2014,02,14,17,48,9.40
2014,02,14,17,49,7.80
2014,02,14,17,50,14.00
2014,02,14,17,51,12.40
2014,02,14,17,52,13.60
2014,02,14,17,53,10.80
2014,02,14,17,54,13.90
2014,02,14,17,55,15.00
2014,02,14,17,56,16.50
2014,02,14,17,57,14.10